Theta_e
327 331 339 343 344 345 344 343 342 342 343 342 341 340 338 339 341 341 340 340 340 338 336 336 335 332 332 333 331 330 330 330 330 329 328 326 326 326 327 326 325 325 325 323 322 324 324 323 322 321 322 324 325 326 326 325 324 323 322 321 321 321 319 318 317 313 311 309 308 307 305 301 300 302 303 302 298 296 300 300 297 298 303 301 298
325 330 338 342 344 345 344 343 342 342 342 342 342 341 339 340 341 340 340 340 339 337 337 337 336 333 332 332 330 329 328 328 328 326 326 325 324 325 326 326 326 325 324 322 323 323 323 321 319 318 319 322 324 324 324 323 323 322 321 321 321 319 318 317 316 313 311 309 307 307 304 301 302 304 304 303 300 299 301 301 299 301 303 303 301
323 328 335 340 343 344 343 343 343 341 342 342 342 340 339 340 341 340 341 339 337 337 337 337 336 334 333 332 331 328 326 326 327 326 325 325 324 325 326 326 326 323 319 318 319 320 319 318 318 316 317 319 319 321 321 321 322 321 321 321 320 318 317 316 315 313 311 309 307 306 303 300 303 305 304 304 302 301 303 302 301 301 301 303 303
324 328 332 337 342 343 342 342 342 342 342 342 342 340 340 341 341 341 340 338 336 336 336 336 335 334 334 332 331 328 326 327 327 327 327 326 326 327 327 327 324 320 315 313 314 315 314 313 313 311 311 311 312 314 315 317 320 320 320 320 320 319 318 316 313 312 312 310 307 307 303 300 303 305 305 305 303 302 303 302 301 301 301 302 304
326 330 332 335 340 342 341 342 342 341 342 343 342 340 340 341 342 341 339 337 336 335 335 335 335 334 333 332 330 328 328 328 328 327 327 327 327 327 326 326 323 316 312 311 311 311 310 309 309 307 307 305 306 307 308 312 318 319 319 320 320 320 318 314 312 312 312 310 308 306 304 301 303 305 304 304 303 302 303 302 301 302 302 301 303
330 334 334 335 340 341 340 341 341 341 342 343 341 340 340 341 341 341 339 337 335 335 335 335 334 333 333 332 329 328 328 328 327 327 327 327 327 326 325 326 323 316 312 310 310 310 309 307 306 305 304 302 303 303 303 308 315 318 319 319 319 319 316 313 312 311 311 310 307 305 304 302 303 305 303 302 303 304 304 303 302 303 303 302 302
333 335 334 336 341 341 339 340 341 341 342 342 341 340 341 342 341 340 338 336 335 335 335 334 333 333 333 330 328 328 328 328 327 327 327 326 326 325 324 325 323 318 314 310 309 309 307 306 304 303 302 302 302 302 302 305 311 315 318 318 318 318 315 312 312 311 310 309 306 305 304 302 302 304 303 302 304 305 304 303 303 302 303 303 303
334 333 334 339 341 340 339 340 341 341 342 342 341 341 341 342 341 339 337 336 336 335 334 333 333 333 331 329 327 328 328 327 327 326 326 325 325 325 324 323 320 316 314 312 310 308 305 303 302 301 301 301 301 302 303 305 310 314 316 317 318 317 315 312 311 311 310 308 306 305 304 302 302 304 303 302 304 305 304 304 304 303 303 304 303
333 333 338 340 340 339 340 340 341 341 342 341 341 341 342 341 340 338 336 336 336 335 333 332 332 332 330 328 327 328 327 327 327 326 326 325 324 324 323 321 318 316 316 314 311 307 303 301 302 301 301 301 301 301 303 305 308 311 313 315 317 316 313 312 312 311 310 307 305 305 305 304 303 304 302 300 303 305 305 304 305 304 303 303 303
335 337 340 340 339 339 340 340 341 342 341 341 341 342 341 340 339 338 336 336 335 334 333 332 331 331 329 327 327 327 327 327 327 326 326 325 325 324 323 321 318 318 317 313 309 305 302 301 301 301 301 301 301 301 302 304 307 309 311 313 315 315 313 312 311 310 309 307 305 305 305 305 304 303 301 299 302 305 304 303 305 305 303 304 303
338 339 340 339 339 339 340 340 341 341 342 341 341 341 340 339 338 337 336 335 335 334 332 332 331 330 328 327 327 327 327 327 326 325 325 325 325 324 322 320 319 319 315 309 306 304 302 301 301 301 301 301 300 301 301 303 306 308 310 312 313 314 313 312 311 309 307 306 305 304 304 305 304 302 301 302 304 305 304 303 304 304 303 304 304
339 340 339 338 339 340 340 341 342 341 341 340 339 339 339 339 338 337 336 335 334 333 332 331 331 330 327 327 327 327 327 326 325 324 324 324 324 324 322 321 320 318 314 308 306 304 302 301 301 301 301 300 300 301 301 302 304 306 307 308 309 310 311 310 308 306 303 304 304 303 304 306 304 301 303 304 303 303 303 303 304 304 303 304 305
339 339 338 338 339 339 340 341 342 342 341 340 338 338 338 339 338 336 335 335 333 333 332 331 331 330 328 328 327 327 326 325 324 324 323 324 324 323 322 320 317 315 311 308 307 305 303 301 300 300 301 300 300 300 300 301 302 303 304 305 305 306 306 304 302 300 300 303 304 302 303 305 304 302 303 302 301 302 303 303 304 304 304 304 305
339 339 338 338 339 340 340 341 341 341 340 338 336 336 338 338 337 335 334 334 334 333 332 331 331 329 328 328 327 327 326 324 324 324 324 324 323 322 322 319 314 311 309 308 307 306 304 302 301 301 300 300 300 300 300 301 301 302 302 302 302 303 302 299 297 297 298 301 303 303 302 303 303 303 300 297 298 301 302 303 304 304 304 304 304
338 338 339 339 340 340 341 341 341 340 339 338 336 335 337 337 335 334 334 334 334 333 332 331 330 328 327 327 327 327 326 324 324 324 324 323 323 321 320 318 314 310 309 308 306 305 304 303 303 302 301 301 300 299 300 301 302 302 301 300 300 300 299 297 297 297 297 298 301 302 301 299 300 301 297 294 298 301 303 304 304 303 304 304 303
337 337 339 340 340 340 340 341 340 339 338 338 336 335 336 335 334 334 334 334 333 332 331 331 330 328 328 327 326 327 326 324 324 324 323 323 322 320 318 316 313 311 309 308 306 305 304 303 304 304 303 302 301 300 300 302 304 304 302 300 299 298 298 297 297 297 297 297 299 300 298 296 297 298 295 296 299 302 302 303 304 303 303 303 302
337 338 339 340 340 340 341 340 339 338 338 337 335 335 335 335 335 335 334 333 332 331 331 331 329 329 329 327 326 326 325 324 324 324 323 323 322 320 316 314 312 310 309 307 306 305 303 303 306 308 307 305 302 302 302 303 305 306 303 301 300 298 297 298 297 297 297 297 297 297 297 296 296 296 296 296 298 300 301 302 302 302 303 303 304
338 339 340 340 340 340 340 340 340 339 338 336 335 335 335 334 335 335 334 333 332 331 330 330 329 329 329 327 326 325 325 325 324 323 323 323 323 321 316 313 312 310 308 307 306 305 303 302 304 307 309 306 303 303 303 303 306 307 304 303 302 300 298 297 298 297 297 297 297 297 297 297 297 297 296 296 296 297 300 303 303 302 303 304 304
339 340 340 340 340 341 340 340 340 340 338 336 335 333 333 333 335 334 333 333 332 331 330 330 330 329 329 328 326 324 324 324 324 323 323 323 323 321 317 314 312 310 308 307 306 305 304 303 302 303 305 304 302 303 303 304 306 306 303 303 303 302 299 298 297 297 297 297 297 297 297 297 297 297 296 296 296 296 299 304 305 303 303 304 304
338 339 340 340 340 340 339 339 340 339 337 336 335 332 332 334 335 333 332 332 331 331 330 329 329 329 328 327 326 324 324 324 323 324 323 322 322 322 319 316 313 311 309 308 307 306 305 305 304 302 302 302 301 302 302 304 306 305 303 303 304 303 302 299 297 296 296 296 297 297 297 298 297 297 297 297 296 295 298 303 305 304 303 303 303
339 340 340 340 340 338 338 339 340 339 337 335 333 331 332 334 334 332 332 332 331 330 330 328 327 327 328 327 325 323 323 323 323 324 323 323 322 322 320 316 314 313 311 310 310 309 308 307 306 304 302 301 301 301 301 304 305 305 304 305 304 303 303 301 298 296 296 297 299 299 300 301 300 300 300 299 298 297 297 299 302 302 302 303 303
340 340 340 339 338 337 336 338 339 337 335 335 333 333 334 333 333 333 333 332 331 329 329 328 327 328 328 326 324 324 323 323 323 323 323 323 322 322 321 318 317 316 315 313 312 312 311 310 310 307 303 301 301 301 300 302 303 304 305 306 305 304 304 303 300 297 296 299 302 303 303 303 303 302 303 302 301 300 299 299 300 300 301 301 302
340 340 339 338 336 336 335 336 338 337 335 335 334 331 332 332 333 334 334 332 330 328 328 329 329 328 327 325 324 324 323 323 323 324 323 323 322 322 321 320 319 317 316 315 313 312 311 312 312 309 304 301 300 301 300 301 302 302 304 306 306 305 304 302 299 298 299 302 304 303 303 303 303 302 302 302 302 301 301 301 301 300 300 300 300
339 339 337 335 334 335 335 336 337 336 335 335 332 330 331 332 333 334 334 332 330 329 328 330 330 329 327 326 325 325 324 323 323 324 323 323 322 321 321 320 319 318 317 315 313 312 312 312 311 309 306 302 300 299 300 300 300 301 304 306 305 304 304 303 300 298 300 302 303 303 303 303 303 302 302 301 301 302 301 301 300 300 300 299 298
338 337 337 335 334 333 334 336 336 335 335 334 330 329 332 333 332 332 333 332 331 330 330 331 330 329 327 326 326 325 324 323 324 324 324 323 322 321 320 319 318 317 316 315 314 314 314 313 311 307 305 303 300 298 299 299 299 301 304 306 305 304 305 304 300 298 300 302 302 303 303 302 302 302 302 301 301 301 300 299 298 299 299 298 298
338 336 336 337 336 334 335 336 335 334 334 333 331 329 331 333 333 333 333 333 332 332 332 331 330 329 328 327 327 325 323 323 324 324 324 324 323 322 320 319 318 317 316 316 316 315 315 314 311 305 301 302 301 298 297 297 298 302 305 305 305 305 305 303 300 300 301 301 301 302 302 302 302 302 302 301 300 299 299 298 299 299 299 298 299
339 336 335 338 338 336 336 336 334 332 332 333 332 330 330 332 333 334 334 333 331 331 332 331 329 329 328 328 327 325 324 324 323 323 323 323 323 322 321 319 318 317 317 316 316 315 315 314 310 304 299 299 299 297 297 298 300 303 305 305 305 305 303 302 300 299 300 301 301 301 301 302 303 302 301 300 299 299 300 300 300 301 300 299 299
339 336 335 337 338 337 336 335 332 329 329 331 332 330 330 331 332 334 335 334 331 330 330 330 328 327 328 328 327 326 325 324 323 323 323 323 323 322 321 320 319 318 317 316 315 315 314 312 308 302 298 297 297 296 296 299 301 304 305 305 304 303 301 300 299 298 299 301 302 302 302 303 303 301 300 299 299 299 300 301 300 301 301 300 300
338 337 336 336 336 337 337 335 330 327 328 330 330 330 331 332 333 334 333 332 331 330 330 329 327 326 326 327 327 326 326 324 323 323 324 324 323 322 320 319 318 317 317 316 315 314 312 310 306 302 298 296 296 295 295 297 299 301 302 301 300 298 297 297 297 297 299 301 303 303 303 302 300 299 299 299 299 300 300 300 300 300 301 300 300
338 337 338 338 337 337 337 334 330 329 330 331 331 331 332 333 333 332 331 330 330 330 329 328 327 326 325 326 326 326 326 325 325 325 324 323 322 320 319 318 317 316 316 315 314 312 310 308 305 302 299 297 296 296 296 296 296 296 296 296 296 296 296 296 296 297 298 300 301 302 302 301 299 298 299 299 299 300 300 300 300 300 300 300 300
336 335 335 336 336 336 336 335 333 332 332 332 332 332 333 332 332 331 331 330 329 328 327 326 326 325 325 326 326 326 326 325 325 324 324 323 322 320 318 317 315 315 315 314 312 311 310 308 306 303 301 300 300 299 298 298 297 295 295 295 296 296 297 298 299 299 298 299 299 300 301 300 298 298 300 300 300 300 300 300 299 300 300 300 300
334 333 334 336 336 334 334 334 333 332 332 332 332 333 333 332 331 331 330 328 326 326 326 325 325 325 325 325 325 326 325 325 324 324 323 323 322 320 318 317 316 315 314 313 311 311 310 309 307 305 303 302 302 300 298 297 297 296 296 297 298 298 299 300 300 300 300 299 299 299 300 300 299 298 300 300 299 300 301 300 300 300 300 300 300
334 334 334 335 334 333 333 332 332 331 331 332 332 333 332 332 331 330 328 326 325 325 325 324 324 324 324 324 325 325 324 324 324 323 322 321 321 319 318 317 315 313 312 311 310 309 308 308 308 307 305 304 303 302 299 297 297 297 299 301 301 301 301 302 302 301 300 299 299 300 301 300 298 298 299 300 300 300 300 301 300 300 300 300 300
334 335 334 332 330 330 331 332 333 333 332 332 332 332 332 331 330 328 326 325 325 324 324 324 324 324 324 324 324 324 324 323 322 321 320 319 318 317 316 315 313 312 311 310 310 309 308 308 308 308 307 306 306 305 303 302 301 302 303 304 303 303 303 302 302 302 300 298 299 301 301 300 298 297 298 299 300 300 300 300 301 300 300 300 300
334 335 334 332 330 331 332 332 332 333 333 332 332 331 331 331 329 327 326 326 325 324 323 324 324 324 324 324 324 323 323 322 321 319 319 318 316 315 314 313 312 312 311 310 309 309 308 307 308 308 307 307 306 306 305 305 304 304 304 304 303 303 302 301 300 301 299 298 298 301 301 299 297 297 298 299 300 300 300 300 300 300 301 301 300
332 332 333 332 333 333 331 330 331 332 332 332 331 331 331 330 328 327 326 326 325 324 323 323 323 323 323 323 323 322 321 321 320 319 318 317 316 315 313 312 312 311 310 308 308 308 307 307 307 307 308 307 307 306 305 305 305 305 304 304 303 302 299 297 297 298 298 297 298 300 301 300 297 295 297 299 299 300 300 300 300 300 300 300 300
331 331 331 331 331 331 329 329 330 331 331 331 331 331 331 329 328 326 325 324 324 323 323 323 323 323 322 322 322 322 321 320 319 318 317 316 315 313 312 312 311 310 308 307 307 306 306 306 307 307 308 308 307 306 305 305 305 305 304 303 303 301 298 296 295 295 295 295 296 298 299 298 295 294 295 297 299 299 300 300 300 300 300 300 300
331 330 330 330 330 330 330 330 329 329 329 330 330 329 328 328 327 326 324 324 324 324 323 323 322 322 322 322 321 321 320 319 318 317 317 316 315 313 312 311 310 309 308 307 307 306 305 305 306 307 307 308 307 306 305 305 304 304 303 303 302 301 299 298 297 296 295 295 294 295 295 294 293 293 294 296 298 299 299 300 300 300 300 300 299
330 330 330 329 329 329 329 329 328 328 329 328 327 327 327 326 325 325 324 324 324 323 323 322 321 321 321 321 321 320 319 318 318 317 316 315 314 313 312 311 309 308 308 307 307 306 306 305 306 306 306 306 306 306 305 305 304 303 303 302 302 302 301 300 300 299 299 298 297 296 295 294 293 292 293 295 297 298 299 299 299 299 299 300 299
330 329 329 328 327 326 326 326 326 326 326 326 325 325 325 324 324 324 324 324 323 323 322 321 321 320 321 321 320 320 319 318 317 316 316 315 314 313 312 311 310 309 308 308 307 307 306 306 306 306 306 305 305 305 305 304 304 303 303 302 302 302 301 301 301 301 300 299 298 297 296 294 293 293 293 295 297 298 298 298 298 298 299 299 299
326 326 326 326 325 325 324 323 323 323 324 324 324 323 323 323 323 323 323 323 323 323 322 321 320 320 320 320 319 318 318 317 316 315 315 315 314 313 312 311 310 309 309 309 308 307 306 306 306 306 305 305 304 304 304 304 303 303 303 303 303 302 301 301 301 301 301 300 298 296 294 293 293 294 295 296 296 297 297 298 299 299 299 299 299
324 324 324 324 324 323 323 322 322 323 323 322 322 322 322 323 323 323 323 322 322 322 321 320 319 319 318 318 317 316 316 315 314 314 314 314 313 312 312 311 310 310 310 309 309 308 307 306 306 306 305 304 304 303 303 302 301 301 303 303 303 302 301 301 301 301 301 300 297 294 293 295 296 296 297 297 297 297 298 299 300 300 300 299 299
321 321 321 321 321 322 322 322 322 323 322 322 322 322 322 322 322 322 321 321 320 320 319 319 318 318 318 317 316 316 315 314 313 312 312 312 312 312 311 311 311 310 310 310 309 308 307 306 306 305 305 304 303 303 302 301 300 299 300 302 302 302 301 301 300 300 301 300 298 295 295 297 299 299 298 299 299 299 299 300 300 299 299 299 299
318 318 318 319 319 320 321 321 321 322 322 322 322 322 321 321 321 320 320 319 319 319 318 317 317 318 317 317 316 316 315 313 312 311 311 312 312 312 311 311 310 310 310 310 310 309 308 307 306 305 305 304 303 303 302 300 300 299 299 300 301 301 301 301 300 300 300 300 300 298 297 297 298 299 299 300 299 299 299 299 299 299 299 299 299
318 318 318 319 319 320 320 321 321 321 321 321 321 321 320 320 319 318 318 318 318 317 316 316 317 318 317 317 317 316 315 314 312 311 311 311 311 310 310 309 309 309 308 308 308 308 308 307 306 306 305 305 304 303 301 300 299 299 299 300 300 301 301 301 300 300 300 300 300 300 299 298 298 299 299 299 299 299 299 299 299 299 299 299 299
319 319 319 319 319 319 320 320 320 319 320 320 319 319 319 318 318 317 317 317 317 317 316 317 317 317 316 316 315 315 314 313 312 311 311 310 310 309 309 308 307 307 306 306 307 307 307 307 306 306 306 305 304 303 301 300 300 299 299 299 300 300 300 301 301 300 301 301 300 300 299 297 297 298 299 299 299 299 299 299 299 299 299 299 299
320 320 320 320 319 319 319 319 319 319 319 318 318 318 318 317 317 317 317 317 316 316 316 316 316 315 314 313 314 313 313 312 311 311 311 310 309 309 307 306 306 305 306 306 307 307 307 307 306 306 305 305 304 303 302 301 301 300 299 299 299 299 299 300 300 299 300 300 299 298 297 297 297 298 299 299 299 299 299 300 300 299 299 299 299
319 319 319 319 319 319 319 319 319 319 319 319 318 318 318 318 318 317 317 317 317 316 315 315 315 314 313 313 313 312 312 311 311 311 310 310 308 307 306 305 305 304 304 304 305 306 306 306 306 305 305 305 304 303 302 301 301 301 300 300 299 299 298 298 298 298 298 298 298 297 297 297 298 298 298 299 299 300 300 300 299 299 299 300 300
318 318 318 318 318 318 318 318 318 319 318 318 318 318 318 318 318 318 318 317 316 316 315 315 314 314 314 313 313 312 311 311 311 311 310 308 307 306 305 304 303 302 301 301 301 302 303 304 305 305 305 304 304 304 303 302 301 301 301 300 299 298 298 298 297 297 297 297 297 297 297 298 298 298 299 300 300 300 300 299 299 299 299 299 299
315 315 315 315 316 316 316 316 317 317 317 317 317 317 317 318 317 317 317 317 316 316 316 315 314 314 314 313 313 312 312 312 312 311 309 307 306 305 304 302 302 301 301 301 301 301 301 301 302 302 303 303 303 303 303 302 302 302 301 300 299 297 297 297 297 297 297 297 297 298 298 299 299 299 300 300 300 299 299 299 299 299 299 299 299
313 313 314 314 314 315 315 315 315 315 315 315 316 316 316 316 316 316 316 316 316 316 315 315 315 314 314 313 313 313 312 312 312 310 308 306 305 304 303 302 302 302 302 302 302 301 300 300 299 299 299 299 300 301 302 302 302 302 301 300 298 297 297 297 297 297 298 298 298 299 299 299 299 300 300 299 299 299 298 299 299 299 299 299 298
Wind_Speed
29 27 22 19 21 23 24 24 24 23 22 23 24 22 21 21 20 19 20 19 17 16 14 12 11 13 12 11 12 12 12 13 13 11 9 6 5 4 4 4 5 7 10 11 11 12 11 11 12 13 15 17 18 17 16 16 16 17 18 18 18 17 15 12 12 12 13 16 17 16 15 14 13 12 12 11 7 6 8 6 4 5 6 5 4
30 29 23 18 20 23 23 23 23 23 24 23 22 22 22 22 21 21 21 19 18 16 12 10 9 10 11 10 10 10 9 10 10 8 6 6 5 4 4 4 6 8 11 12 13 13 11 11 13 14 16 16 16 15 15 16 17 17 19 19 17 16 15 14 13 12 11 15 17 16 16 14 13 13 13 11 7 6 7 6 4 6 8 8 6
32 32 27 20 19 23 24 23 23 24 24 22 22 23 23 22 23 23 22 20 19 15 11 10 9 8 8 7 8 9 8 9 9 8 6 6 6 4 4 4 6 9 10 11 12 12 12 12 13 14 15 15 14 14 15 17 16 17 19 19 17 18 20 18 14 11 10 13 16 16 16 15 14 13 13 11 9 8 8 7 6 7 8 9 8
35 34 30 23 19 21 24 24 24 25 23 21 23 25 25 24 24 23 23 22 21 17 12 11 10 8 8 7 8 8 8 8 9 8 7 7 6 6 6 5 7 10 11 11 12 13 12 12 13 14 14 15 15 15 17 17 16 16 18 20 21 22 24 20 15 11 10 12 14 15 16 17 15 13 14 13 11 11 10 9 8 7 8 9 9
36 35 32 25 20 22 24 24 25 26 23 22 25 27 26 25 24 23 24 23 21 18 15 12 10 9 8 9 9 8 7 8 8 8 8 8 8 8 7 8 9 11 12 12 12 13 12 12 13 13 14 14 15 15 16 17 16 17 19 21 22 23 23 19 15 12 10 10 13 15 16 16 14 14 15 14 12 11 11 10 8 7 8 9 9
35 34 32 24 21 24 26 26 26 26 24 23 26 27 26 25 25 25 25 22 21 18 14 11 11 9 9 11 11 9 7 8 8 9 10 10 10 9 9 10 11 11 11 12 11 12 12 12 13 13 13 14 14 15 16 17 18 19 19 20 21 23 23 20 16 13 10 10 13 15 16 16 15 15 15 14 13 12 11 10 9 8 9 9 9
35 34 30 24 23 26 26 25 26 26 25 24 26 28 26 25 26 26 24 22 20 18 14 12 11 10 11 13 12 9 8 8 8 10 11 11 10 9 9 12 13 12 12 11 11 11 12 12 13 13 13 14 14 14 15 17 18 19 19 20 21 22 23 20 16 14 11 11 13 15 17 17 16 14 14 14 13 12 12 11 10 9 9 9 10
35 33 28 24 25 27 26 25 25 26 26 26 27 28 26 26 26 26 25 23 20 18 16 13 12 12 13 13 11 10 9 9 10 11 11 10 9 9 10 12 14 14 13 12 11 12 12 12 13 14 15 15 14 14 15 16 17 18 20 21 21 21 22 20 17 14 12 12 14 15 16 16 15 14 14 15 14 13 13 12 10 10 10 10 10
33 30 26 26 28 27 26 27 26 26 27 27 29 28 27 27 27 27 26 23 20 19 18 16 14 13 14 13 11 11 11 11 12 11 10 9 10 11 12 14 15 14 13 13 12 12 12 13 14 16 16 15 14 14 14 14 15 16 19 20 20 21 21 19 16 14 12 13 15 16 16 15 15 15 16 16 15 14 14 12 11 10 10 10 10
28 27 25 28 29 27 27 28 27 27 28 29 29 28 28 29 28 28 27 23 19 19 20 18 16 15 15 14 12 12 12 13 13 12 11 11 11 12 14 16 17 15 13 13 12 11 12 13 14 15 16 15 15 15 15 15 14 15 16 17 19 20 21 19 16 14 13 14 16 16 16 15 16 16 16 15 14 13 14 14 12 11 11 10 9
27 27 27 30 30 28 29 30 28 26 28 31 30 29 31 30 29 30 28 23 20 20 21 19 16 15 16 14 13 13 14 14 13 12 11 11 11 13 15 17 17 16 14 12 12 12 13 14 15 15 15 16 16 17 17 17 16 15 15 15 16 18 19 18 16 15 15 15 16 16 15 15 16 16 15 14 14 14 14 13 12 11 11 10 9
27 27 29 31 30 29 30 30 27 26 30 33 31 30 32 31 30 31 28 25 22 21 22 21 17 16 16 14 14 15 14 14 12 10 10 11 12 14 15 16 17 16 15 14 14 14 14 14 15 15 15 16 17 17 18 18 18 18 17 16 15 16 17 17 16 16 16 15 16 16 14 14 15 15 14 15 16 14 13 12 12 12 11 10 8
28 29 32 32 31 31 32 29 27 28 33 34 31 31 32 32 33 31 28 25 23 21 23 23 19 16 16 15 15 16 15 13 12 10 9 9 10 13 14 15 16 16 16 15 15 15 14 14 15 15 15 16 17 18 18 18 19 19 18 17 16 16 17 17 15 15 15 15 14 14 13 14 14 14 15 16 15 14 13 12 12 11 10 9 7
29 31 34 33 32 33 31 28 28 30 33 34 32 31 32 34 34 30 26 25 23 21 24 24 20 18 17 16 16 17 15 14 12 10 8 7 8 11 13 15 15 15 16 16 15 14 14 14 15 16 16 16 18 19 18 18 19 18 17 17 17 18 18 17 15 15 16 14 12 12 13 13 13 14 16 16 14 13 12 11 11 11 9 9 9
31 34 35 34 35 34 30 28 29 30 33 34 31 31 33 33 31 27 26 27 24 22 23 22 21 21 20 18 18 17 16 15 13 10 9 8 7 9 12 15 16 16 16 15 15 14 14 14 14 15 16 16 17 18 18 18 18 17 16 16 16 17 19 18 16 16 17 15 12 12 13 13 14 15 15 13 12 12 11 10 11 11 10 10 10
33 35 35 35 34 32 30 30 29 31 35 34 31 32 34 33 29 29 30 27 21 19 21 21 22 23 21 19 19 18 17 16 14 11 10 9 8 8 11 14 16 16 16 16 15 15 14 14 14 14 15 16 17 17 18 17 16 15 15 15 15 17 19 18 16 15 16 16 15 14 14 14 14 14 13 13 13 13 12 11 11 11 10 9 8
35 36 35 34 33 32 33 33 32 33 36 35 31 32 34 33 32 31 29 25 20 19 20 21 23 24 22 20 20 20 19 18 16 13 11 10 8 8 11 13 15 16 16 16 16 16 16 16 14 13 13 16 16 16 16 16 14 13 14 14 14 17 18 17 15 15 14 15 15 14 13 12 12 12 12 13 15 14 12 10 10 10 9 8 8
36 37 35 34 34 34 34 35 37 38 38 35 31 32 34 34 33 30 26 23 23 22 19 20 24 26 23 20 20 21 21 19 17 15 12 10 9 8 9 11 13 15 15 15 15 15 16 16 16 14 13 15 16 15 15 15 14 14 15 14 14 15 16 16 16 15 14 14 12 11 10 10 10 10 10 12 13 13 12 9 8 9 9 7 7
37 37 36 36 35 34 34 37 40 41 38 34 31 31 34 35 33 28 23 22 25 23 18 18 23 25 24 21 19 20 22 21 19 17 14 12 10 8 8 9 10 11 12 13 13 14 14 14 16 16 16 16 16 16 15 15 15 16 17 15 14 13 14 16 16 14 13 12 10 9 8 9 8 8 8 10 11 13 15 10 6 8 8 6 5
37 36 36 36 34 31 33 38 42 41 38 35 32 31 34 35 31 26 23 24 25 22 18 19 23 25 24 22 21 21 22 22 21 19 15 13 11 9 9 10 9 9 11 12 12 13 13 13 14 16 16 16 16 17 17 16 16 18 17 15 15 15 14 15 14 12 11 10 8 8 8 7 7 6 7 7 8 11 15 13 7 6 6 5 5
35 33 35 36 33 29 32 38 42 41 38 34 31 31 32 32 29 27 27 25 22 21 22 25 26 25 23 23 23 22 22 23 23 20 16 14 12 10 9 10 9 9 10 10 9 10 11 12 14 14 15 16 17 18 18 18 18 18 17 17 18 16 13 12 12 11 11 10 8 8 8 7 7 7 7 7 8 9 13 14 11 8 6 4 4
36 35 35 35 31 31 34 37 39 40 37 34 32 31 32 32 31 31 30 25 22 24 28 29 27 25 24 24 25 23 22 23 23 20 17 15 13 11 10 10 10 10 9 8 8 8 9 11 14 14 14 16 18 20 20 20 19 19 19 20 19 15 12 12 12 11 11 10 9 8 8 9 9 10 9 9 9 9 10 12 12 11 8 6 5
38 36 35 33 33 34 36 36 38 40 38 34 32 33 35 35 33 33 33 28 26 28 30 30 29 27 25 26 27 24 24 24 23 20 17 16 14 13 12 12 11 10 9 8 7 7 9 12 14 14 14 15 17 19 21 21 20 20 20 20 19 15 13 13 14 13 12 12 10 10 11 12 12 12 11 10 10 10 10 11 11 11 10 8 8
34 33 33 33 34 36 36 36 40 41 37 34 33 34 36 36 35 35 35 32 29 29 30 32 32 30 28 28 27 25 25 25 23 20 18 16 15 15 15 14 13 11 9 8 8 8 10 13 14 13 14 16 16 18 21 21 21 21 20 20 19 17 15 15 15 15 14 13 13 13 13 13 13 13 11 10 10 10 10 12 12 12 11 10 10
30 31 34 34 34 35 36 38 41 38 34 33 34 35 36 37 37 36 34 32 30 30 30 32 33 32 31 29 27 27 27 26 24 22 19 17 17 17 16 15 14 12 11 11 11 11 13 14 13 12 15 16 16 18 20 21 21 20 20 20 20 19 17 16 16 16 16 17 16 14 13 12 13 11 10 10 11 11 12 13 13 12 12 12 11
31 32 35 37 35 32 35 40 39 34 31 33 35 36 37 38 37 35 32 31 30 30 31 33 35 33 31 30 29 29 28 27 26 24 21 19 19 19 19 17 16 14 14 13 13 12 13 14 13 12 14 16 17 17 18 19 20 21 22 21 21 20 20 19 18 18 19 18 17 15 13 12 12 13 12 12 12 11 11 12 11 11 12 12 11
34 31 33 38 36 33 37 38 32 28 31 35 37 37 37 36 35 34 33 31 27 27 30 34 34 32 31 31 31 30 28 27 27 26 24 22 21 20 19 18 17 16 15 13 12 12 13 13 12 12 12 15 16 16 17 18 20 21 22 22 21 22 22 22 22 22 20 17 15 15 14 12 13 15 15 14 12 11 11 11 10 10 11 11 11
34 30 32 36 36 36 39 35 28 28 33 36 35 35 36 35 33 33 33 32 29 28 30 31 30 29 30 32 32 32 30 28 26 26 25 23 21 20 19 17 16 16 14 13 12 14 15 14 13 12 13 15 16 16 16 17 19 21 22 22 22 23 24 24 24 23 20 16 15 14 13 14 16 16 15 15 14 13 13 14 12 11 11 12 12
33 31 32 35 36 39 39 33 29 32 34 34 34 34 33 32 31 31 32 34 32 29 27 25 24 24 29 33 34 34 32 29 26 24 22 19 16 15 14 14 15 15 15 14 15 16 16 16 14 13 15 17 18 18 18 18 19 21 22 22 21 22 23 24 24 22 20 18 16 15 16 18 19 18 17 17 16 14 14 15 14 12 12 13 13
34 32 33 35 38 41 39 34 32 33 34 35 35 34 32 31 31 33 34 33 29 24 22 20 18 19 24 31 33 32 31 28 25 22 18 15 13 12 12 13 14 16 16 16 16 15 14 15 15 15 16 18 19 19 19 19 20 21 21 21 21 21 21 22 22 22 21 21 21 21 21 21 20 19 18 18 17 16 16 16 15 14 14 14 14
34 33 35 37 38 37 36 35 35 35 35 35 33 32 32 32 33 34 33 27 23 21 19 18 16 16 20 25 27 26 24 22 20 20 18 17 16 16 17 17 17 18 17 16 17 17 16 16 16 15 16 17 18 19 20 20 20 21 21 21 21 22 22 23 22 22 23 24 24 24 23 22 20 19 19 18 17 16 16 16 16 15 15 15 15
34 34 37 39 38 36 35 36 37 37 35 32 31 31 32 33 35 35 30 24 22 21 20 20 19 18 20 23 24 24 23 21 20 21 21 20 20 20 21 21 20 20 19 18 19 19 17 17 17 16 16 17 18 20 21 22 22 22 22 22 23 23 23 23 23 23 24 26 27 26 24 22 21 21 20 19 18 16 15 16 17 17 16 15 15
33 35 36 35 34 34 35 36 36 36 33 31 31 33 33 34 36 36 30 25 23 21 20 22 23 22 22 24 24 24 23 22 22 21 20 20 20 21 21 21 21 20 20 20 20 18 15 15 17 17 17 17 18 19 20 21 22 22 22 22 23 22 22 21 21 21 23 26 27 26 25 23 23 22 20 18 17 17 16 16 16 17 16 16 16
32 36 36 33 31 31 32 33 33 33 31 32 34 34 34 35 36 34 30 26 23 21 22 25 25 25 24 25 25 24 23 23 22 20 17 18 19 20 20 20 20 20 19 20 21 20 17 16 17 18 18 18 19 18 19 20 21 21 21 22 21 21 21 21 21 21 21 23 26 26 25 23 23 22 21 19 17 17 17 17 17 16 16 16 16
31 34 34 32 31 32 31 31 31 31 31 34 36 35 34 35 35 31 27 24 22 22 25 27 26 25 24 23 23 23 23 23 22 19 18 18 18 18 19 19 18 17 17 17 18 20 19 18 17 17 18 18 19 19 20 21 21 21 20 20 19 20 21 21 21 21 21 22 24 25 25 24 23 23 22 20 19 19 19 18 17 16 16 16 16
31 33 33 31 32 32 32 32 32 31 33 37 39 36 34 35 34 28 24 22 22 24 27 26 24 23 22 22 22 21 21 21 20 19 18 17 16 16 16 16 15 13 13 13 14 16 17 17 16 16 16 17 17 18 20 21 22 21 20 18 18 18 19 19 19 20 21 21 22 24 25 24 24 24 24 23 21 21 20 18 17 17 17 17 16
31 31 31 31 31 32 33 32 31 31 33 37 38 34 32 33 31 26 24 23 23 24 25 24 21 21 22 23 23 23 21 20 20 19 18 17 16 16 15 13 12 11 10 10 11 12 14 14 14 14 14 15 16 17 18 20 21 20 19 19 18 17 16 16 17 18 19 20 21 23 24 25 24 25 26 25 23 22 21 20 19 18 18 18 18
28 27 27 29 30 31 32 31 28 28 31 33 33 31 31 31 29 26 24 23 23 23 24 22 21 22 23 24 24 23 22 21 21 21 20 19 18 16 14 11 11 11 11 10 10 10 11 12 12 12 13 14 16 16 17 19 20 19 18 18 19 18 16 15 15 16 17 19 20 22 23 24 24 24 25 26 26 23 20 19 19 18 18 20 22
27 28 29 31 32 32 32 31 29 28 28 28 28 29 29 30 28 25 23 23 23 23 22 22 22 23 24 24 24 23 22 22 21 21 20 19 17 14 13 13 13 13 12 11 10 10 10 10 10 11 12 13 15 16 17 18 19 19 18 17 17 18 18 17 16 16 16 17 19 21 22 23 24 24 25 27 27 26 23 21 20 20 19 19 21
26 28 28 27 28 28 27 26 26 25 24 25 27 27 27 28 26 24 22 23 25 24 22 22 23 24 24 23 22 20 20 20 20 19 18 17 15 14 14 15 15 14 13 12 11 11 10 9 9 10 11 12 13 14 15 16 17 19 19 18 17 18 19 18 18 18 17 17 17 19 20 22 23 23 23 25 26 25 25 24 24 24 22 20 20
21 23 24 22 23 24 23 21 21 21 22 23 25 25 25 24 23 22 22 23 24 23 22 21 22 22 22 20 18 17 16 16 16 16 16 16 15 16 16 16 15 15 15 14 14 13 11 10 10 10 11 11 12 13 14 16 18 21 23 22 19 18 19 19 19 19 17 16 17 18 18 19 20 19 19 21 22 22 23 22 22 23 24 24 24
18 21 22 21 20 20 19 17 18 19 20 21 22 21 21 20 20 21 22 21 21 22 22 22 21 20 19 18 17 17 15 12 12 15 17 17 17 17 17 17 17 18 18 17 16 15 13 12 11 11 11 11 13 14 15 17 19 22 25 25 22 20 19 19 19 20 18 16 15 16 15 15 16 16 17 18 20 21 21 19 19 21 23 24 23
17 17 17 16 16 16 14 14 15 17 18 19 19 19 19 19 19 20 20 21 21 22 23 22 21 20 19 18 18 18 17 13 12 15 17 18 19 20 20 20 20 20 20 20 19 18 16 14 14 14 13 13 14 15 16 17 18 19 21 23 22 21 20 18 17 18 18 16 14 15 15 16 16 16 18 19 20 21 20 19 21 22 22 21 20
19 18 17 16 15 15 15 16 17 17 16 17 18 19 19 18 18 18 19 21 23 21 19 19 21 20 18 17 17 18 19 17 15 15 18 19 21 21 21 20 21 21 21 20 21 21 20 19 19 18 16 14 15 16 15 15 15 16 19 21 22 21 21 21 18 15 15 15 14 14 16 18 19 18 19 20 20 20 20 21 21 20 20 19 18
19 19 19 18 18 17 17 18 18 17 17 17 18 20 19 17 15 15 15 17 18 16 14 16 19 20 18 18 18 19 20 20 18 18 18 19 19 19 19 19 20 20 19 20 20 22 22 22 23 22 19 17 16 15 14 13 13 14 16 19 21 21 22 22 21 18 17 17 16 15 16 19 21 20 20 20 19 19 20 20 19 19 20 21 20
19 19 19 19 20 20 19 19 18 18 19 19 19 20 19 17 15 15 15 15 16 16 16 18 20 20 18 19 19 19 20 20 19 18 19 19 18 18 18 18 18 18 18 19 19 20 21 21 22 22 21 19 17 15 13 12 12 12 13 15 18 19 18 18 20 23 23 22 20 19 19 21 22 22 21 20 19 18 18 17 17 18 19 20 19
17 17 17 17 17 18 19 19 18 18 18 18 18 18 19 18 18 18 18 17 18 18 18 18 19 18 16 16 18 19 19 18 18 19 19 19 18 18 17 17 16 15 16 17 17 17 17 19 19 20 20 19 18 16 14 12 12 12 12 12 13 14 14 16 20 24 24 23 22 22 22 22 22 21 20 19 18 17 15 15 15 16 16 17 18
11 11 11 11 12 12 13 14 15 15 15 15 15 15 16 16 16 17 17 17 17 18 18 18 18 18 18 18 19 19 19 18 18 18 19 18 17 17 16 15 15 14 14 14 14 14 15 16 17 18 19 19 18 17 15 14 12 12 12 12 13 14 15 16 18 20 21 20 21 21 21 21 20 19 18 18 17 15 14 14 14 14 16 18 19
6 6 5 5 6 6 7 8 9 10 11 13 14 14 15 16 16 16 16 16 16 17 18 18 19 19 20 20 20 20 18 17 17 17 17 16 16 16 16 15 14 13 13 12 13 13 14 14 15 17 18 19 18 17 17 16 15 14 14 15 16 16 16 16 18 18 18 19 19 18 18 18 17 17 17 16 14 13 13 13 14 15 17 19 19
6 5 4 3 3 4 5 5 5 6 7 8 10 11 13 14 15 15 15 15 16 18 19 20 20 20 20 20 20 19 18 18 18 17 16 16 16 17 16 15 13 12 11 11 11 12 13 14 16 17 18 19 19 18 17 16 16 16 16 17 17 16 16 17 18 18 18 17 16 15 15 16 17 17 15 13 12 11 12 13 14 15 17 18 18
9 8 6 5 4 3 3 3 4 5 5 6 7 8 9 11 12 13 13 14 16 18 19 20 20 21 21 20 20 20 19 19 19 18 17 16 17 18 17 14 12 12 11 10 10 11 12 13 15 16 17 18 18 17 17 17 17 17 17 16 15 13 13 14 15 15 14 14 13 13 14 16 16 15 13 12 12 12 12 13 14 16 17 17 18
Wind_Direction
234 228 214 205 203 203 206 207 207 206 204 203 206 205 206 213 218 214 211 213 217 222 221 219 219 222 225 234 244 250 250 248 246 241 233 214 181 158 166 197 225 227 216 209 209 205 201 197 188 190 202 208 210 216 222 226 226 217 209 208 210 206 202 201 197 198 204 206 203 205 211 204 192 190 193 204 204 157 155 181 179 139 153 191 195
234 228 217 206 202 202 205 205 203 205 204 199 199 202 206 213 217 213 211 212 214 211 206 204 210 216 220 227 238 243 241 235 226 213 194 175 166 162 174 199 219 220 213 209 207 205 203 199 195 199 208 211 212 214 218 221 219 210 204 205 206 204 199 194 203 219 220 215 209 206 209 201 187 191 198 206 208 168 164 188 174 161 175 182 201
234 230 222 208 199 202 206 204 200 202 200 195 198 202 205 211 214 210 208 208 205 200 199 203 204 203 206 213 224 232 233 224 210 196 184 180 183 198 208 214 223 216 204 199 199 198 199 201 204 209 212 214 213 210 211 217 216 208 205 204 201 204 207 204 212 228 227 218 211 207 208 196 183 192 198 202 202 176 175 196 188 185 184 173 193
232 230 224 211 198 200 204 202 200 200 196 193 198 202 205 210 212 208 204 202 199 200 205 204 199 197 196 196 206 223 227 213 199 190 187 192 207 223 219 212 216 206 190 187 192 193 195 203 209 212 214 215 214 213 217 218 212 204 205 207 208 213 216 212 216 225 228 225 213 204 205 196 185 190 194 198 201 181 179 200 196 190 193 176 181
228 227 223 213 200 200 203 200 200 200 194 192 199 203 206 210 209 205 202 199 198 205 210 204 197 196 193 194 201 211 211 198 192 192 196 206 222 232 223 209 207 200 190 190 194 195 198 206 209 209 210 214 214 215 219 216 207 204 209 212 215 218 216 211 216 222 225 228 214 199 201 197 186 190 197 199 201 189 188 202 198 191 197 185 184
224 222 220 210 200 204 205 199 199 198 191 191 199 202 206 209 207 202 199 197 199 205 207 201 196 190 186 196 204 200 189 188 192 197 205 217 226 233 228 210 203 199 194 194 199 205 208 209 211 210 208 208 209 212 214 211 208 209 212 213 215 216 212 211 218 223 220 222 213 200 198 196 189 193 201 200 196 193 195 199 198 194 197 192 193
218 216 214 206 199 204 203 197 197 196 189 190 197 201 205 207 203 197 195 196 199 203 204 198 192 184 184 195 200 189 178 184 190 197 210 220 223 227 223 206 199 201 199 195 199 208 214 212 209 205 199 196 199 204 206 206 206 208 210 212 214 214 211 212 219 223 220 215 208 200 199 200 196 195 200 199 194 194 197 198 199 198 197 195 198
214 213 208 202 201 201 198 196 195 191 187 190 197 201 202 201 197 193 193 195 197 205 211 202 185 179 186 194 190 180 179 184 187 195 208 216 214 211 205 196 195 199 199 196 197 205 211 209 202 197 192 188 190 195 198 200 202 206 207 209 212 212 210 214 219 221 219 213 204 197 197 201 199 195 198 199 196 198 201 200 200 200 197 196 198
211 208 200 200 203 197 193 196 193 186 186 191 198 200 198 195 193 192 193 193 195 205 214 206 187 181 188 190 185 182 185 186 190 197 205 209 209 204 195 190 192 195 197 196 195 200 207 203 197 194 190 186 186 187 189 191 197 204 206 206 209 210 210 215 219 215 210 206 197 193 195 198 197 198 205 204 199 199 201 200 201 201 197 197 200
202 199 196 200 200 193 193 194 187 183 188 193 196 196 193 191 191 192 193 192 196 205 210 204 191 187 190 188 185 186 186 187 195 203 206 208 211 207 199 195 193 195 200 198 193 198 206 203 198 197 193 189 188 187 184 183 188 197 203 205 208 211 214 218 217 210 204 200 196 195 197 197 200 206 213 209 199 198 202 200 198 197 195 195 200
192 194 198 199 195 192 193 190 182 182 188 191 192 192 191 190 191 192 191 190 197 205 205 198 188 185 188 186 184 184 184 188 197 203 206 209 211 207 204 201 200 204 205 196 191 200 206 204 200 198 197 194 193 192 187 183 183 186 189 197 207 213 218 221 218 212 205 198 199 201 199 199 208 213 213 205 197 199 202 199 196 196 197 197 200
190 194 197 194 191 190 190 186 181 183 188 190 191 192 190 189 190 190 188 191 200 206 203 195 186 183 184 183 181 181 181 188 195 198 201 206 208 207 205 203 204 208 206 197 196 201 203 201 199 199 200 200 199 198 194 189 186 184 183 188 197 207 214 218 220 219 211 201 204 207 201 203 213 214 208 204 202 202 200 197 198 198 199 204 203
191 195 194 191 189 188 186 183 180 182 187 189 191 191 191 188 188 187 188 197 205 206 201 195 187 183 184 181 180 179 181 187 189 187 189 197 203 205 205 204 202 204 205 203 202 202 199 197 199 201 201 203 205 203 198 195 193 192 190 190 194 202 207 206 209 214 210 203 206 209 205 207 213 212 211 211 209 202 197 196 198 196 200 208 200
191 193 192 189 188 186 185 182 180 182 186 189 192 194 192 188 185 185 192 201 204 201 199 194 186 183 183 180 179 179 182 186 183 179 178 184 195 201 203 203 202 201 204 205 205 204 201 199 201 205 205 207 209 206 201 200 200 198 197 197 198 201 200 194 193 198 200 201 205 210 212 213 211 211 219 222 212 199 194 194 196 193 194 202 197
190 190 188 187 186 186 185 182 181 183 186 190 195 194 189 186 185 190 198 201 200 199 197 191 185 185 184 180 180 181 183 185 181 175 172 170 178 193 199 202 202 203 205 205 204 205 205 203 204 208 209 210 213 211 205 202 202 201 200 201 201 199 195 193 192 194 197 197 198 207 215 216 212 215 223 222 204 189 187 188 190 190 193 203 207
190 188 186 184 183 186 188 184 180 182 187 190 192 191 187 187 191 197 198 195 192 192 191 187 186 187 185 184 184 184 186 187 181 172 167 164 167 180 193 199 201 203 205 206 204 205 206 207 207 210 213 212 212 213 210 204 203 206 205 204 202 199 199 200 198 197 201 202 201 206 212 213 215 218 217 205 193 188 187 187 187 189 196 205 209
188 186 183 181 184 191 193 188 183 186 189 189 189 190 189 189 195 197 193 189 188 186 185 186 188 188 187 189 190 189 191 190 183 176 172 169 169 176 187 197 202 204 205 205 203 205 207 207 206 209 216 216 210 209 211 207 203 208 213 211 207 204 205 207 203 201 207 210 209 209 211 211 216 220 212 204 201 193 185 188 193 194 203 214 212
185 183 182 184 190 195 195 192 190 190 189 186 187 190 190 191 193 192 189 191 193 188 183 184 188 190 192 193 194 195 196 193 188 185 184 181 180 180 184 196 205 208 209 209 208 213 216 215 211 208 215 219 212 206 209 207 203 209 216 218 217 214 213 213 211 208 208 211 210 208 211 214 216 215 208 207 209 194 176 183 205 203 210 229 227
184 184 185 190 195 197 195 195 194 191 187 186 187 190 193 193 192 189 190 194 192 185 181 182 186 189 193 195 196 196 196 195 193 193 194 189 186 178 176 194 208 210 213 216 217 220 224 225 223 218 220 221 214 207 206 204 205 213 217 217 221 225 225 221 219 215 212 212 211 208 215 219 214 211 206 204 208 194 176 175 202 213 220 240 231
186 185 187 192 196 195 192 194 194 190 188 187 187 191 196 193 188 184 187 188 185 182 182 181 181 184 189 193 195 195 196 197 197 199 199 194 191 179 173 190 205 208 212 218 223 229 234 236 235 232 230 227 219 212 208 203 209 218 219 217 216 221 230 233 227 221 215 213 215 215 219 224 217 212 215 213 215 204 187 180 187 211 227 245 234
180 179 186 193 193 188 188 193 193 189 187 185 185 191 194 189 184 185 187 184 182 184 184 182 180 182 186 190 191 194 197 197 198 203 203 201 200 190 179 188 198 203 211 217 223 236 245 248 250 247 241 234 227 219 211 206 212 219 219 220 218 216 226 236 229 225 221 213 214 215 215 227 230 225 227 228 226 219 206 200 204 211 218 239 247
179 183 191 193 189 186 188 191 190 187 186 186 186 189 192 189 187 190 190 187 185 188 188 185 183 185 188 189 191 194 196 197 202 208 207 204 205 200 194 199 202 203 210 210 214 228 238 248 255 253 245 240 233 226 217 210 212 216 217 221 222 217 222 223 214 217 220 210 209 212 214 226 233 228 227 226 221 219 213 211 218 222 222 234 245
187 192 192 189 188 189 189 188 187 187 189 190 189 190 192 191 190 191 192 191 189 189 189 188 188 189 190 191 193 195 197 199 204 210 209 207 209 209 209 213 213 213 214 208 211 223 235 250 259 255 244 239 233 227 220 212 211 214 215 218 219 216 217 216 207 204 207 204 205 213 217 220 223 221 220 217 216 216 211 207 215 223 231 244 247
193 192 187 185 188 189 188 188 188 188 189 190 190 190 190 190 191 192 194 195 192 188 188 188 189 190 190 193 197 199 199 201 206 211 212 210 212 214 216 217 217 218 218 215 217 226 241 258 266 257 242 235 228 223 219 214 213 214 212 214 216 214 214 216 211 203 202 205 210 215 218 220 219 218 216 209 208 212 212 212 216 221 233 248 253
191 188 186 187 187 187 189 189 187 188 191 191 190 191 191 191 193 194 195 197 195 193 192 190 190 192 193 197 201 201 200 203 208 212 212 210 212 218 220 218 220 220 220 225 232 242 256 267 270 257 242 232 223 219 219 218 216 212 209 210 213 212 213 216 212 204 205 213 216 217 221 223 218 213 211 209 212 219 222 223 223 229 239 246 249
187 188 191 192 191 187 186 186 187 191 196 193 191 192 193 193 195 195 196 196 197 198 197 192 192 195 197 200 204 202 200 204 208 212 214 213 214 219 219 218 220 222 224 233 244 254 267 275 273 262 246 231 222 219 220 220 216 208 207 211 213 211 212 213 209 205 208 216 220 222 226 226 219 213 212 216 220 226 228 223 219 228 239 239 240
190 189 191 193 194 191 185 183 187 193 194 192 191 193 196 198 199 198 197 196 194 194 194 193 196 200 202 203 204 203 202 206 209 212 215 217 216 218 221 221 222 226 231 239 250 261 269 273 271 260 242 226 220 219 219 218 213 208 209 214 217 216 213 211 210 210 212 215 222 228 229 225 218 216 219 222 221 218 218 214 210 220 230 230 233
191 189 190 192 194 192 187 186 189 191 189 189 191 193 198 201 204 204 201 197 195 192 192 197 203 208 209 207 205 204 205 209 210 211 215 220 222 221 222 222 223 228 233 237 246 257 263 262 258 246 230 220 215 215 214 213 212 213 216 220 220 219 216 214 213 215 217 219 224 228 225 220 220 221 223 225 222 216 214 213 210 214 222 225 228
194 194 194 193 193 190 187 189 193 190 187 189 193 195 199 202 205 205 199 194 196 197 198 204 212 215 213 208 204 204 206 205 205 208 216 222 222 217 216 217 220 227 232 233 239 248 251 250 247 238 227 220 214 211 211 211 212 216 220 221 219 217 216 216 217 218 221 222 224 224 224 227 231 231 227 226 224 218 216 215 213 214 220 224 226
194 194 192 193 194 193 191 191 193 192 193 195 196 197 200 202 202 197 191 191 197 200 202 210 219 221 215 209 207 210 212 210 208 211 215 212 203 197 200 208 216 223 227 230 235 239 239 239 238 234 229 225 220 215 213 213 215 217 218 218 218 217 217 220 223 226 227 228 229 229 232 237 239 233 226 225 224 220 221 223 220 218 222 225 226
192 193 194 196 197 197 194 193 195 199 200 199 198 197 198 198 196 191 189 192 195 197 201 208 212 214 212 209 209 212 213 210 207 207 208 206 201 200 205 209 215 221 224 227 230 233 232 230 229 228 226 224 221 219 218 218 220 221 220 221 223 223 224 226 230 234 236 237 238 238 238 240 238 228 222 223 222 221 226 229 223 220 224 226 227
193 194 197 198 196 196 196 197 199 202 200 198 198 196 193 191 189 187 186 189 192 196 203 203 199 199 201 204 208 209 207 207 206 207 209 210 207 207 211 215 219 224 225 225 228 232 233 232 229 227 223 221 223 226 227 226 224 224 225 228 231 231 232 234 237 240 242 243 243 242 241 238 232 224 223 225 223 222 225 226 222 223 226 226 229
195 198 200 199 196 196 198 199 199 199 196 195 195 192 189 188 186 184 184 187 192 199 202 198 194 193 195 199 203 203 202 207 210 210 208 206 204 207 213 217 219 222 224 226 229 231 231 229 229 229 226 224 227 232 233 231 229 228 230 234 238 239 239 240 242 244 245 244 243 241 238 236 231 225 224 226 225 223 224 224 223 225 226 227 231
200 201 199 196 196 197 198 198 197 198 198 195 191 189 190 190 187 185 186 189 193 197 197 194 193 192 193 197 200 199 200 204 205 202 198 198 202 209 214 216 219 223 227 231 234 236 235 231 229 230 229 228 229 232 233 231 231 232 236 240 243 245 244 244 246 247 246 244 241 238 236 234 230 226 224 225 224 223 224 225 225 226 228 230 233
201 200 197 196 199 201 201 201 201 202 202 197 190 188 191 191 188 189 193 197 201 200 195 192 192 192 192 194 196 197 200 201 198 196 196 201 207 212 215 218 224 230 237 240 241 240 238 233 230 229 229 231 231 232 232 232 232 234 239 243 246 247 247 248 249 248 247 244 239 236 234 233 231 227 224 225 224 224 225 228 229 229 231 233 237
201 200 200 203 205 204 203 204 205 206 202 194 190 192 193 190 189 192 196 200 204 200 193 190 192 192 191 192 193 195 197 197 196 197 200 206 214 218 220 225 232 238 243 245 244 242 239 235 232 231 231 233 234 234 234 234 233 234 238 242 245 248 249 251 249 245 242 241 237 233 231 232 233 231 227 226 226 227 229 231 232 233 236 239 241
200 199 201 204 204 203 202 204 208 209 201 191 190 193 192 189 191 193 192 193 197 197 193 192 192 192 191 193 195 197 196 194 194 196 200 207 214 218 222 230 237 241 242 242 243 244 242 238 235 232 232 234 235 235 236 235 233 234 237 239 241 243 245 248 247 242 238 237 236 234 233 235 236 234 230 228 228 229 231 234 235 237 239 240 241
203 203 203 200 197 200 202 203 205 205 198 191 190 189 186 187 191 192 189 190 195 196 195 193 191 193 195 195 195 196 196 195 195 198 203 209 214 216 221 228 231 233 237 241 241 241 240 238 233 230 231 235 236 236 237 235 234 235 237 237 238 238 239 240 240 238 237 236 236 237 237 238 239 236 232 228 228 229 230 233 236 239 241 244 246
203 204 202 199 196 198 199 197 193 190 189 190 191 188 186 187 189 187 187 191 193 193 192 189 187 190 195 197 198 197 196 196 200 204 209 214 217 218 220 223 225 226 231 237 239 234 232 232 229 227 229 232 234 236 237 236 235 236 235 236 237 237 238 237 236 236 238 240 241 242 241 240 240 238 233 230 229 231 232 234 240 245 246 245 247
205 200 196 194 190 187 186 185 184 184 187 193 194 190 186 185 185 186 190 194 193 192 191 187 186 191 195 197 197 197 198 200 205 211 215 218 221 224 225 227 230 231 230 231 232 230 228 228 228 231 233 232 233 235 234 233 235 235 235 237 240 241 240 237 235 237 240 244 246 247 245 242 240 238 234 232 232 234 237 241 247 254 254 246 241
191 181 172 170 173 173 171 174 178 181 184 187 187 184 181 181 185 191 194 192 191 192 192 189 189 193 193 190 189 194 200 205 210 216 222 223 223 225 228 231 233 233 230 228 229 231 231 230 230 234 237 236 235 234 233 233 235 237 238 239 241 241 241 238 235 235 241 249 251 248 244 242 239 234 232 233 234 236 241 244 247 252 255 251 244
157 156 154 158 165 167 167 169 172 172 173 175 176 178 180 183 188 190 187 183 184 188 189 187 187 188 187 184 185 189 193 199 208 217 223 224 223 224 228 230 231 232 231 230 231 232 233 234 233 234 236 238 238 239 240 241 242 242 242 240 238 237 238 238 235 234 238 246 250 244 235 233 234 232 231 234 238 240 241 239 237 242 250 251 245
137 143 148 154 158 161 165 171 172 172 175 177 177 176 177 178 177 176 174 175 180 183 184 184 186 187 187 188 189 190 192 197 207 215 219 220 221 223 227 231 233 235 237 236 236 235 234 233 234 234 234 237 241 245 251 254 253 249 243 238 236 236 235 232 230 233 236 239 242 242 234 229 232 238 239 239 241 243 239 233 234 242 247 244 241
134 140 148 151 150 151 158 166 168 170 175 177 174 172 172 172 172 174 175 178 180 179 179 184 189 191 193 196 201 203 203 203 206 211 217 222 225 227 232 236 239 242 245 244 243 242 239 237 237 238 236 236 241 248 255 259 258 253 245 237 235 236 234 229 226 227 231 234 238 245 245 240 238 242 247 246 243 240 235 233 237 243 241 236 243
141 145 149 150 147 146 153 162 166 166 167 169 172 175 176 175 173 175 178 180 179 177 179 189 195 198 202 209 214 214 211 209 211 215 220 224 227 229 234 239 243 247 249 249 248 247 244 242 243 244 243 240 243 250 255 255 253 251 247 241 239 239 239 237 234 232 234 239 241 244 249 248 242 240 246 249 241 231 229 235 243 246 243 245 254
145 145 145 146 147 147 151 157 161 162 163 165 168 173 177 178 178 180 183 184 185 187 193 201 204 205 207 210 212 212 210 211 215 219 220 222 226 230 236 243 249 251 251 249 248 248 245 243 245 248 247 245 245 248 249 249 249 248 247 245 244 244 242 240 240 240 243 247 249 249 250 249 243 240 244 245 234 222 224 237 247 249 250 253 257
138 141 142 144 146 148 151 154 156 158 162 166 168 173 178 182 185 187 189 190 191 193 198 203 205 206 204 203 204 206 207 209 214 219 221 225 231 237 242 248 250 248 246 245 245 245 243 242 243 245 245 246 248 249 248 244 245 249 250 247 244 240 235 235 242 247 249 250 251 250 247 246 244 242 240 233 223 219 227 241 248 250 253 256 257
126 131 135 139 145 150 154 158 161 165 170 176 181 186 190 194 195 196 197 198 197 196 197 199 202 205 206 204 204 205 206 209 215 222 226 231 236 239 243 246 244 240 239 239 240 240 239 239 240 242 244 246 250 252 251 244 240 245 248 243 241 243 243 243 246 251 250 248 246 244 244 245 243 237 227 218 216 223 237 249 253 255 257 259 262
133 135 138 145 153 159 161 165 171 176 183 190 196 200 204 208 210 209 207 205 202 200 202 204 206 208 210 210 208 209 212 217 225 230 233 233 234 237 241 241 236 232 232 233 234 235 237 237 239 241 244 247 250 251 250 246 244 246 249 250 254 259 258 251 247 248 249 247 245 243 243 239 229 219 213 214 221 234 244 250 252 255 258 262 266
114 123 140 160 175 184 188 188 186 189 194 202 208 212 214 216 217 216 214 211 207 206 207 209 211 215 217 216 214 216 221 226 233 236 232 227 228 234 236 233 226 224 225 229 233 236 238 240 242 243 244 247 249 249 248 247 247 249 253 259 264 265 259 249 246 248 248 247 244 239 230 217 207 205 210 218 228 239 246 248 250 254 259 263 267
96 98 103 110 121 144 175 190 198 207 214 219 224 224 221 219 219 220 221 222 218 214 212 212 213 216 218 218 219 223 227 231 234 232 225 221 226 232 231 223 218 220 222 227 235 240 241 242 244 244 245 246 246 245 244 245 246 250 255 260 262 258 250 244 242 240 236 230 223 214 204 199 202 210 221 228 236 244 250 251 254 258 262 265 269